DW7857 Weather Reports


time (UTC)temp
F
wind
direction
speed
knots
gust
knots
rain 1hr
in
rain 24hr
in
rain mn
in
humidity
%
barometer
mb
20180223222012 33 69 2.6 3.5 0.00 0.00 0.00 62 1005.4
20180223221012 33 97 2.6 3.5 0.00 0.00 0.00 63 1005.3
20180223220013 32 64 3.5 5.2 0.00 0.00 0.00 64 1005.3
20180223215012 32 61 3.5 7.0 0.00 0.00 0.00 64 1005.4
20180223214012 31 75 1.7 2.6 0.00 0.00 0.00 63 1005.2
20180223213013 32 74 1.7 4.3 0.00 0.00 0.00 63 1005.3
20180223212012 32 69 1.7 2.6 0.00 0.00 0.00 62 1005.1
20180223211012 32 63 1.7 2.6 0.00 0.00 0.00 61 1005.0
20180223210012 33 58 0.9 1.7 0.00 0.00 0.00 61 1005.0
20180223205012 33 76 2.6 4.3 0.00 0.00 0.00 61 1005.1
20180223204012 33 50 3.5 4.3 0.00 0.00 0.00 61 1005.1
20180223203012 33 59 2.6 4.3 0.00 0.00 0.00 60 1005.1
20180223202012 34 66 2.6 4.3 0.00 0.00 0.00 60 1004.9
20180223201012 34 44 1.7 2.6 0.00 0.00 0.00 59 1005.1
20180223200013 34 64 2.6 3.5 0.00 0.00 0.00 58 1004.8
20180223195012 35 69 3.5 4.3 0.00 0.00 0.00 58 1004.9
20180223194012 35 71 2.6 3.5 0.00 0.00 0.00 57 1004.9
20180223193012 35 71 4.3 7.0 0.00 0.00 0.00 57 1004.9
20180223192012 36 69 5.2 7.0 0.00 0.00 0.00 57 1004.7
20180223191012 36 78 3.5 4.3 0.00 0.00 0.00 56 1004.8
20180223190012 36 70 3.5 6.1 0.00 0.00 0.00 55 1004.6
20180223185012 36 78 4.3 7.0 0.00 0.00 0.00 55 1004.7
20180223184012 37 43 4.3 7.0 0.00 0.00 0.00 55 1004.6
20180223183012 37 66 4.3 7.0 0.00 0.00 0.00 55 1004.5
20180223182012 37 68 6.1 8.7 0.00 0.00 0.00 55 1004.8
20180223181012 37 66 3.5 5.2 0.00 0.00 0.00 54 1004.6
20180223180012 38 93 2.6 4.3 0.00 0.00 0.00 53 1004.4
20180223175012 38 103 1.7 1.7 0.00 0.00 0.00 52 1004.3
20180223174015 38 73 1.7 3.5 0.00 0.00 0.00 51 1004.3
20180223173015 39 117 3.5 6.1 0.00 0.00 0.00 51 1004.3
20180223172011 40 85 1.7 3.5 0.00 0.00 0.00 50 1004.5
20180223171010 40 100 2.6 3.5 0.00 0.00 0.00 50 1004.4
20180223170010 41 53 3.5 6.1 0.00 0.00 0.00 48 1004.5
20180223165010 42 73 5.2 6.1 0.00 0.00 0.00 45 1004.4
20180223164010 43 48 1.7 2.6 0.00 0.00 0.00 47 1004.3
20180223163010 33 0 0.0 0.0 0.00 0.00 0.00 77 1004.3
20180223162010 33 0 0.0 0.0 0.00 0.00 0.00 77 1004.4
20180223161010 33 0 0.0 0.0 0.00 0.00 0.00 77 1004.6
20180223160010 33 0 0.0 0.0 0.00 0.00 0.00 77 1004.5
20180223155010 33 0 0.0 0.0 0.00 0.00 0.00 77 1004.9
20180223154011 33 0 0.0 0.0 0.00 0.00 0.00 77 1004.6
20180223153010 33 0 0.0 0.0 0.00 0.00 0.00 77 1004.8
20180223152010 33 0 0.0 0.0 0.00 0.00 0.00 77 1004.9
20180223151010 33 0 0.0 0.0 0.00 0.00 0.00 77 1005.4
20180223150010 33 0 0.0 0.0 0.00 0.00 0.00 77 1005.3
20180223145010 33 0 0.0 0.0 0.00 0.00 0.00 77 1005.4
20180223144010 33 0 0.0 0.0 0.00 0.00 0.00 77 1005.5
20180223143010 33 0 0.0 0.0 0.00 0.00 0.00 77 1005.6
20180223142010 33 0 0.0 0.0 0.00 0.00 0.00 77 1005.6
20180223141010 33 0 0.0 0.0 0.00 0.00 0.00 77 1005.8
20180223140010 33 0 0.0 0.0 0.00 0.00 0.00 77 1005.8
20180223135010 33 0 0.0 0.0 0.00 0.00 0.00 77 1006.0
20180223134010 33 0 0.0 0.0 0.00 0.00 0.00 77 1006.0
20180223133010 33 0 0.0 0.0 0.00 0.00 0.00 77 1006.0
20180223132010 33 0 0.0 0.0 0.00 0.00 0.00 77 1006.1
20180223131010 33 0 0.0 0.0 0.00 0.00 0.00 77 1006.5
20180223130010 33 0 0.0 0.0 0.00 0.00 0.00 77 1006.4
20180223125010 33 0 0.0 0.0 0.00 0.00 0.00 77 1006.7
20180223124010 33 0 0.0 0.0 0.00 0.00 0.00 77 1006.4
20180223123010 33 0 0.0 0.0 0.00 0.00 0.00 77 1006.8
20180223122010 33 0 0.0 0.0 0.00 0.00 0.00 77 1007.0
20180223121010 33 0 0.0 0.0 0.00 0.00 0.00 77 1007.2
20180223120010 33 0 0.0 0.0 0.00 0.00 0.00 77 1007.0
20180223115010 33 0 0.0 0.0 0.00 0.00 0.00 77 1007.3
20180223114010 33 0 0.0 0.0 0.00 0.00 0.00 77 1007.2
20180223113010 33 0 0.0 0.0 0.00 0.00 0.00 77 1007.4
20180223112010 33 0 0.0 0.0 0.00 0.00 0.00 77 1007.3
20180223111010 33 0 0.0 0.0 0.00 0.00 0.00 77 1007.4
20180223110011 33 0 0.0 0.0 0.00 0.00 0.00 77 1007.6
20180223105011 33 0 0.0 0.0 0.00 0.00 0.00 77 1007.6
20180223104010 33 0 0.0 0.0 0.00 0.00 0.00 77 1007.7
20180223103011 33 0 0.0 0.0 0.00 0.00 0.00 77 1007.6
20180223102011 33 0 0.0 0.0 0.00 0.00 0.00 77 1008.0
20180223101010 33 0 0.0 0.0 0.00 0.00 0.00 77 1007.8
20180223100011 33 0 0.0 0.0 0.00 0.00 0.00 77 1007.9
20180223095011 33 0 0.0 0.0 0.00 0.00 0.00 77 1008.0
20180223094011 33 0 0.0 0.0 0.00 0.00 0.00 77 1008.0
20180223093011 33 0 0.0 0.0 0.00 0.00 0.00 77 1008.0
20180223092011 33 0 0.0 0.0 0.00 0.00 0.00 77 1007.9
20180223091011 33 0 0.0 0.0 0.00 0.00 0.00 77 1008.3
20180223090010 31 0 0.0 0.0 0.00 0.00 0.00 76 1008.2
20180223085010 28 0 0.0 0.0 0.00 0.00 0.00 73 1007.9
20180223084011 28 0 0.0 0.0 0.00 0.00 0.00 73 1007.9
20180223083011 28 0 0.0 0.0 0.00 0.00 0.00 73 1008.1
20180223082011 28 0 0.0 0.0 0.00 0.00 0.00 73 1008.0
20180223081011 28 0 0.0 0.0 0.00 0.00 0.00 73 1008.1
20180223080011 28 0 0.0 0.0 0.00 0.00 0.00 73 1008.0
20180223075011 28 74 0.9 2.6 0.00 0.00 0.00 73 1008.1
20180223074011 28 90 0.0 2.6 0.00 0.00 0.00 73 1007.8
20180223073011 28 330 0.9 1.7 0.00 0.00 0.00 73 1007.9
20180223072011 28 314 0.0 1.7 0.00 0.00 0.00 73 1008.1
20180223071011 28 314 0.0 1.7 0.00 0.00 0.00 73 1007.9
20180223070011 28 23 0.9 1.7 0.00 0.00 0.00 73 1007.9
20180223065011 29 92 2.6 3.5 0.00 0.00 0.00 73 1007.7
20180223064011 29 59 3.5 4.3 0.00 0.00 0.00 73 1007.7
20180223063011 29 62 4.3 6.1 0.00 0.00 0.00 73 1007.8
20180223062011 29 60 4.3 6.1 0.00 0.00 0.00 73 1007.7
20180223061011 29 62 5.2 6.1 0.00 0.00 0.00 73 1007.9
20180223060011 29 62 5.2 7.0 0.00 0.00 0.00 73 1007.7
20180223055011 29 51 5.2 6.1 0.00 0.00 0.00 73 1007.7
20180223054011 29 46 4.3 6.1 0.00 0.00 0.00 73 1007.9
20180223053011 29 69 2.6 4.3 0.00 0.00 0.00 72 1007.6
20180223052011 29 0 0.0 0.0 0.00 0.00 0.00 72 1007.8
20180223051011 29 0 0.0 0.0 0.00 0.00 0.00 72 1007.5
20180223050011 30 0 0.0 0.0 0.00 0.00 0.00 72 1007.6
20180223045011 30 0 0.0 0.0 0.00 0.00 0.00 72 1007.8
20180223044011 30 0 0.0 0.0 0.00 0.00 0.00 73 1007.7
20180223043011 30 0 0.0 0.0 0.00 0.00 0.00 73 1007.7
20180223042011 30 0 0.0 0.0 0.00 0.00 0.00 73 1007.6
20180223041011 30 0 0.0 0.0 0.00 0.00 0.00 74 1007.6
20180223040011 29 0 0.0 0.0 0.00 0.00 0.00 74 1007.5
20180223035011 29 0 0.0 0.0 0.00 0.00 0.00 74 1007.9
20180223034011 28 0 0.0 0.0 0.00 0.00 0.00 74 1007.7
20180223033011 28 0 0.0 0.0 0.00 0.00 0.00 74 1008.0
20180223032011 28 0 0.0 0.0 0.00 0.00 0.00 74 1007.9
20180223031011 28 0 0.0 0.0 0.00 0.00 0.00 74 1008.0
20180223030011 28 0 0.0 0.0 0.00 0.00 0.00 74 1008.3
20180223025011 28 0 0.0 0.0 0.00 0.00 0.00 74 1008.2
20180223024011 28 0 0.0 0.0 0.00 0.00 0.00 74 1008.2
20180223023011 28 0 0.0 0.0 0.00 0.00 0.00 74 1008.3
20180223022017 28 0 0.0 0.0 0.00 0.00 0.00 74 1008.6
20180223021016 28 0 0.0 0.0 0.00 0.00 0.00 74 1008.3
20180223020017 27 0 0.0 0.0 0.00 0.00 0.00 73 1008.4
20180223015017 28 0 0.0 0.0 0.00 0.00 0.00 74 1008.5
20180223014016 28 0 0.0 0.0 0.00 0.00 0.00 74 1008.6
20180223013017 28 0 0.0 0.0 0.00 0.00 0.00 74 1008.6
20180223012017 28 0 0.0 0.0 0.00 0.00 0.00 73 1008.8
20180223011017 28 96 0.9 3.5 0.00 0.00 0.00 73 1008.8
20180223010016 28 45 0.0 1.7 0.00 0.00 0.00 73 1008.7
20180223005017 28 46 0.0 0.9 0.00 0.00 0.00 73 1008.9
20180223004017 28 121 0.9 1.7 0.00 0.00 0.00 72 1008.8
20180223003017 28 0 0.0 0.0 0.00 0.00 0.00 72 1008.8
20180223002016 28 0 0.0 0.0 0.00 0.00 0.00 72 1008.9
20180223001016 28 0 0.0 0.0 0.00 0.00 0.00 72 1008.9
20180223000019 29 0 0.0 0.0 0.00 0.00 0.00 72 1009.0
20180222235017 29 0 0.0 0.0 0.00 0.00 0.00 72 1008.9
20180222234017 29 0 0.0 0.0 0.00 0.00 0.00 73 1008.9
20180222233017 29 0 0.0 0.0 0.00 0.00 0.00 72 1008.8
20180222232017 29 58 0.9 1.7 0.00 0.00 0.00 72 1009.1
20180222231017 29 28 0.9 1.7 0.00 0.00 0.00 72 1009.2
20180222230017 29 225 0.0 1.7 0.00 0.00 0.00 72 1009.1
20180222225017 29 0 0.0 0.0 0.00 0.00 0.00 72 1009.1
20180222224017 29 0 0.0 0.0 0.00 0.00 0.00 72 1009.4
20180222223017 30 0 0.0 0.0 0.00 0.00 0.00 72 1009.2